Flag for U.S.A. Weather past 2 weeks in Angels Camp, California, U.S.A.

Now
96 °F

Passing clouds.


Feels Like: 93 °F
Forecast: 58 / 97 °F
Wind: 9 mph from Northwest

Location: Modesto City-County-Sham Field

Current Time: Sep 2, 2014 at 3:21:34 PM

Latest Report: Sep 2, 2014 at 2:53 PM


Visibility: 7 mi

Pressure: 29.71 "Hg

Humidity: 23%

Dew point: 52 °F

Location of Angels CampLocation

Historic Weather in Angels Camp — Graph

°F

Angels Camp temperature yesterday

Maximum temperature yesterday: 97 °F (at 4:53 PM)
Minimum temperature yesterday: 64 °F (at 5:53 AM)
Average temperature yesterday: 80 °F

Past Weeks' High & Low Weather Summary

 TemperatureHumidityPressure
High97 °F (Sep 1, 4:53 PM)87% (Aug 20, 5:53 AM)30.03 "Hg (Aug 20, 5:53 AM)
Low60 °F (Aug 21, 5:53 AM)11% (Aug 30, 8:53 PM)29.69 "Hg (Sep 1, 6:53 PM)
Average76 °F47%29.84 "Hg
* Reported Aug 18 1:53 PM — Sep 2 1:53 PM, Angels Camp, Weather by CustomWeather, © 2014

Note: Actual official high and low records may vary slightly from our data, if they occured in-between our weather recording intervals... More about our weather records

Advertising

Angels Camp weather history for previous 24 hours

 ConditionsComfort  
Time TempWeatherWind HumidityBarometerVisibility
1:53 PM
Sep 2
96 °FSunny.8 mph21%29.72 "Hg10 mi
12:53 PM92 °FSunny.No wind21%29.75 "Hg10 mi
11:53 AM88 °FSunny.No wind26%29.77 "Hg10 mi
10:53 AM86 °FSunny.No wind28%29.78 "Hg10 mi
9:53 AM82 °FSunny.3 mph33%29.78 "Hg10 mi
8:53 AM78 °FSunny.5 mph39%29.78 "Hg10 mi
7:53 AM74 °FSunny.3 mph52%29.77 "Hg8 mi
6:53 AM65 °FClear.No wind76%29.75 "Hg8 mi
5:53 AM66 °FClear.No wind70%29.74 "Hg10 mi
4:53 AM66 °FClear.No wind70%29.73 "Hg10 mi
3:53 AM68 °FClear.No wind65%29.73 "Hg10 mi
2:53 AM68 °FClear.No wind63%29.73 "Hg10 mi
1:53 AM70 °FClear.No wind59%29.73 "Hg10 mi
12:53 AM75 °FClear.No wind47%29.74 "Hg10 mi
11:53 PM
Sep 1
77 °FClear.6 mph42%29.73 "Hg10 mi
10:53 PM80 °FClear.5 mph39%29.73 "Hg10 mi
9:53 PM83 °FClear.6 mph34%29.72 "Hg10 mi
8:53 PM83 °FClear.7 mph34%29.71 "Hg10 mi
7:53 PM87 °FSunny.No wind28%29.70 "Hg9 mi
6:53 PM94 °FSunny.8 mph21%29.69 "Hg8 mi
5:53 PM97 °FSunny.13 mph17%29.70 "Hg10 mi
4:53 PM97 °FSunny.14 mph17%29.71 "Hg10 mi
3:53 PM95 °FSunny.10 mph23%29.72 "Hg9 mi
Weather by CustomWeather, © 2014

See weather overviewHow to use our weather pages